TimeMDT,TemperatureF,Dew PointF,Humidity,Sea Level PressureIn,VisibilityMPH,Wind Direction,Wind SpeedMPH,Gust SpeedMPH,PrecipitationIn,Events,Conditions,WindDirDegrees,DateUTC
12:56 AM,39.9,28.0,63,29.92,-9999.0,NW,12.7,-,N/A,,Unknown,310,2013-04-21 06:56:00
1:56 AM,41.0,30.0,65,29.91,-9999.0,NW,9.2,-,N/A,,Unknown,310,2013-04-21 07:56:00
2:56 AM,39.0,30.0,70,29.91,-9999.0,NW,11.5,-,N/A,,Unknown,310,2013-04-21 08:56:00
3:56 AM,39.0,30.9,73,29.90,-9999.0,NW,11.5,-,N/A,,Unknown,320,2013-04-21 09:56:00
4:56 AM,39.0,30.0,70,29.91,-9999.0,NW,12.7,-,N/A,,Unknown,310,2013-04-21 10:56:00
5:56 AM,37.0,28.9,73,29.94,-9999.0,NW,10.4,-,N/A,,Unknown,310,2013-04-21 11:56:00
6:56 AM,39.9,30.0,68,29.96,-9999.0,WNW,3.5,-,N/A,,Unknown,300,2013-04-21 12:56:00
7:56 AM,53.1,33.1,47,29.97,-9999.0,NW,15.0,-,N/A,,Unknown,310,2013-04-21 13:56:00
8:56 AM,57.0,33.1,40,29.97,-9999.0,NW,8.1,-,N/A,,Unknown,320,2013-04-21 14:56:00
9:56 AM,61.0,30.9,32,29.97,-9999.0,Variable,3.5,-,N/A,,Unknown,0,2013-04-21 15:56:00
10:56 AM,63.0,28.9,28,29.96,-9999.0,Variable,6.9,-,N/A,,Unknown,0,2013-04-21 16:56:00
11:56 AM,66.0,28.0,24,29.94,-9999.0,East,8.1,-,N/A,,Unknown,80,2013-04-21 17:56:00
12:56 PM,69.1,27.0,21,29.92,-9999.0,Variable,4.6,-,N/A,,Unknown,0,2013-04-21 18:56:00
1:56 PM,68.0,24.1,19,29.90,-9999.0,Variable,6.9,-,N/A,,Unknown,0,2013-04-21 19:56:00
2:56 PM,66.9,24.1,20,29.89,-9999.0,NW,5.8,-,N/A,,Unknown,310,2013-04-21 20:56:00
3:56 PM,70.0,24.1,18,29.86,-9999.0,Calm,Calm,-,N/A,,Unknown,0,2013-04-21 21:56:00
4:56 PM,69.1,23.0,18,29.85,-9999.0,South,9.2,-,N/A,,Unknown,180,2013-04-21 22:56:00
5:56 PM,66.9,23.0,19,29.86,-9999.0,SSE,9.2,-,N/A,,Unknown,150,2013-04-21 23:56:00
6:56 PM,64.9,24.1,21,29.86,-9999.0,West,3.5,-,N/A,,Unknown,270,2013-04-22 00:56:00
7:56 PM,63.0,25.0,24,29.83,-9999.0,SE,5.8,-,N/A,,Unknown,130,2013-04-22 01:56:00
8:56 PM,61.0,27.0,27,29.84,-9999.0,ESE,6.9,-,N/A,,Unknown,120,2013-04-22 02:56:00
9:56 PM,60.1,28.0,30,29.87,-9999.0,ESE,10.4,-,N/A,,Unknown,120,2013-04-22 03:56:00
10:56 PM,57.9,30.0,35,29.87,-9999.0,SE,17.3,-,N/A,,Unknown,140,2013-04-22 04:56:00
11:56 PM,54.0,33.1,45,29.88,-9999.0,SE,10.4,-,N/A,,Unknown,140,2013-04-22 05:56:00